This demonstration page uses our WeatherBlox Daily Observations layout. Learn more.

36.17497, -115.13722

Hourly Observations for July 24, 2015

Temp ( °F °C ) Dew Point ( °F °C ) Humidity (%) Winds ( mph kmh ) Pressure ( in mb ) Visibility ( mi km ) Precip ( " mm )
12:53 am 00:53 Clear 86 30 35 1.7 16 16 SSW 10 17 29.91 1013 10 16.0934 0 0
1:53 am 01:53 Clear 84 28.9 39 3.9 20 20 WSW 6 9 29.91 1013 10 16.0934 0 0
2:53 am 02:53 Clear 82 27.8 43 6.1 25 25 S 8 13 29.91 1013 10 16.0934 0 0
3:53 am 03:53 Clear 81 27.2 47 8.3 30 30 S 13 20 29.91 1013 10 16.0934 0 0
4:53 am 04:53 Clear 79 26.1 47 8.3 32 32 S 10 17 29.94 1014 10 16.0934 0 0
5:53 am 05:53 Sunny 78 25.6 48 8.9 35 35 Calm 29.96 1015 10 16.0934 0 0
6:53 am 06:53 Sunny 79 26.1 48 8.9 34 34 VRB 5 7 29.98 1015 10 16.0934 0 0
7:53 am 07:53 Sunny 83 28.3 49 9.4 31 31 ESE 6 9 30 1016 10 16.0934 0 0
8:53 am 08:53 Sunny 85 29.4 49 9.4 29 29 S 9 15 30.01 1016 10 16.0934 0 0
9:53 am 09:53 Sunny 89 31.7 43 6.1 20 20 S 14 22 30.01 1016 10 16.0934 0 0
10:53 am 10:53 Sunny 91 32.8 43 6.1 19 19 SE 9 15 30 1016 10 16.0934 0 0
11:16 am 11:16 Sunny 93 34 34 1 12 12 S 18 30 29.85 1011 10 16.0934 0 0
11:53 am 11:53 Sunny 94 34.4 35 1.7 13 13 SW 16 26 29.99 1016 10 16.0934 0 0
12:53 pm 12:53 Sunny 96 35.6 32 0 10 10 SSW 20 31 29.97 1015 10 16.0934 0 0
1:53 pm 13:53 Sunny 98 36.7 28 -2.2 8 8 WSW 18 30 29.95 1014 10 16.0934 0 0
2:53 pm 14:53 Sunny 98 36.7 24 -4.4 7 7 SSW 22 35 29.92 1013 10 16.0934 0 0
3:53 pm 15:53 Sunny 97 36.1 26 -3.3 8 8 S 8 13 29.91 1013 10 16.0934 0 0
4:53 pm 16:53 Sunny 100 37.8 27 -2.8 7 7 WSW 16 26 29.88 1012 10 16.0934 0 0
5:53 pm 17:53 Sunny 98 36.7 30 -1.1 9 9 SW 15 24 29.88 1012 10 16.0934 0 0
6:53 pm 18:53 Sunny 97 36.1 30 -1.1 9 9 SW 13 20 29.88 1012 10 16.0934 0 0
7:53 pm 19:53 Sunny 94 34.4 30 -1.1 10 10 SW 13 20 29.88 1012 10 16.0934 0 0
8:53 pm 20:53 Clear 93 33.9 31 -0.6 11 11 SW 12 19 29.88 1012 10 16.0934 0 0
9:53 pm 21:53 Clear 91 32.8 30 -1.1 11 11 SW 10 17 29.9 1013 10 16.0934 0 0
10:53 pm 22:53 Clear 90 32.2 31 -0.6 12 12 SW 9 15 29.91 1013 10 16.0934 0 0
11:53 pm 23:53 Clear 88 31.1 33 0.6 14 14 SSW 13 20 29.91 1013 10 16.0934 0 0

Powered by AerisWeather